EW1210 Weather Reports


Display with metric or nautical units.
time (UTC)temp
F
wind
direction
speed
MPH
gust
MPH
rain 1hr
in
rain 24hr
in
rain mn
in
humidity
%
barometer
mb
20260507003011 55 148 0.0 5.0 0.00 0.13 0.13 87 1009.1
20260507001510 55 300 2.0 8.0 0.00 0.13 0.13 87 1009.0
20260507000009 55 271 2.0 7.0 0.00 0.13 0.13 87 1008.9
20260506234517 55 181 1.0 7.0 0.00 0.13 0.13 87 1008.8
20260506233009 55 195 2.0 7.0 0.00 0.13 0.13 86 1008.7
20260506231508 55 243 3.0 11.0 0.00 0.13 0.13 86 1008.9
20260506230007 55 217 1.0 9.0 0.00 0.13 0.13 87 1008.7
20260506224509 55 229 1.0 7.0 0.00 0.13 0.13 86 1008.6
20260506223006 55 281 2.0 7.0 0.00 0.13 0.13 86 1008.5
20260506221505 55 194 2.0 5.0 0.01 0.13 0.13 86 1008.5
20260506220012 55 192 1.0 6.0 0.02 0.13 0.13 86 1008.4
20260506214504 55 145 0.0 6.0 0.03 0.13 0.13 87 1008.4
20260506213003 55 224 1.0 5.0 0.05 0.13 0.13 87 1008.3
20260506211501 55 224 3.0 8.0 0.04 0.12 0.12 87 1008.5
20260506210059 55 263 1.0 9.0 0.04 0.11 0.11 87 1008.6
20260506204558 55 214 2.0 7.0 0.03 0.10 0.10 87 1008.9
20260506203057 56 186 4.0 9.0 0.02 0.09 0.09 87 1009.0
20260506201556 56 236 2.0 11.0 0.02 0.08 0.08 87 1009.0
20260506200055 56 230 4.0 10.0 0.01 0.07 0.07 87 1009.0
20260506194555 56 222 3.0 10.0 0.01 0.07 0.07 87 1009.1
20260506193052 56 189 3.0 11.0 0.02 0.07 0.07 87 1009.2
20260506191550 55 195 2.0 9.0 0.03 0.06 0.06 87 1009.5
20260506190047 55 239 4.0 12.0 0.05 0.06 0.06 87 1009.9
20260506184547 55 200 0.0 8.0 0.06 0.06 0.06 87 1009.9
20260506183044 55 148 5.0 10.0 0.04 0.04 0.04 88 1010.0
20260506181542 56 204 3.0 6.0 0.02 0.02 0.02 88 1010.1
20260506180043 56 213 2.0 4.0 0.01 0.01 0.01 87 1010.4
20260506174538 57 277 2.0 8.0 0.00 0.00 0.00 87 1010.9
20260506173044 58 195 1.0 8.0 0.00 0.00 0.00 85 1010.9
20260506171540 59 162 2.0 13.0 0.00 0.00 0.00 84 1011.1
20260506170034 59 257 3.0 14.0 0.00 0.00 0.00 85 1011.2
20260506164543 59 278 4.0 13.0 0.00 0.00 0.00 84 1011.4
20260506163033 59 297 5.0 17.0 0.00 0.00 0.00 84 1011.4
20260506161533 60 204 3.0 11.0 0.00 0.00 0.00 83 1011.5
20260506160029 60 212 1.0 13.0 0.00 0.00 0.00 83 1011.9
20260506154527 61 222 6.0 17.0 0.00 0.00 0.00 81 1012.0
20260506153026 61 234 5.0 11.0 0.00 0.00 0.00 81 1011.9
20260506151525 62 232 2.0 9.0 0.00 0.00 0.00 81 1012.2
20260506150023 63 164 2.0 8.0 0.00 0.00 0.00 79 1012.2
20260506144525 63 296 1.0 12.0 0.00 0.00 0.00 80 1012.2
20260506143031 62 291 4.0 11.0 0.00 0.00 0.00 80 1012.4
20260506141520 62 212 3.0 9.0 0.00 0.00 0.00 80 1012.7
20260506140019 61 257 5.0 15.0 0.00 0.00 0.00 82 1012.5
20260506134519 61 225 2.0 5.0 0.00 0.00 0.00 82 1012.4
20260506133017 61 210 3.0 8.0 0.00 0.00 0.00 81 1012.2
20260506131518 61 207 3.0 7.0 0.00 0.00 0.00 82 1012.1
20260506130016 62 243 4.0 12.0 0.00 0.00 0.00 81 1012.5
20260506124512 61 203 3.0 9.0 0.00 0.00 0.00 83 1012.6
20260506123010 60 282 4.0 8.0 0.00 0.00 0.00 84 1012.8
20260506121508 59 254 3.0 8.0 0.00 0.00 0.00 85 1012.7
20260506120006 59 203 4.0 7.0 0.00 0.00 0.00 85 1012.8
20260506114505 59 215 2.0 7.0 0.00 0.00 0.00 86 1012.9
20260506113008 58 296 1.0 8.0 0.00 0.00 0.00 87 1012.7
20260506111504 58 284 1.0 5.0 0.00 0.00 0.00 87 1012.7
20260506110003 57 245 1.0 10.0 0.00 0.00 0.00 88 1012.8
20260506104501 0 0.0 0.0 0.00 0.00 0.00 1012.8
20260506103057 0 0.0 0.0 0.00 0.00 0.00 1012.8
20260506101553 0 0.0 0.0 0.00 0.00 0.00 1012.7
20260506100048 0 0.0 0.0 0.00 0.00 0.00 1012.6
20260506094547 0 0.0 0.0 0.00 0.00 0.00 1012.4
20260506093046 0 0.0 0.0 0.00 0.00 0.00 1012.6
20260506091535 56 272 2.0 8.0 0.00 0.00 0.00 87 1012.6
20260506090033 57 212 1.0 6.0 0.00 0.00 0.00 87 1012.9
20260506084533 57 210 3.0 9.0 0.00 0.00 0.00 87 1012.9
20260506083034 57 156 3.0 11.0 0.00 0.00 0.00 87 1012.9
20260506081529 57 228 1.0 5.0 0.00 0.00 0.00 87 1012.9
20260506073025 57 205 3.0 10.0 0.00 0.00 0.00 86 1013.1
20260506071525 58 207 5.0 11.0 0.00 0.00 0.00 86 1013.0
20260506061524 58 274 2.0 7.0 0.00 0.00 0.00 85 1013.0
20260506044503 58 291 3.0 11.0 0.00 0.00 0.00 83 1013.6
20260506043006 58 239 3.0 7.0 0.00 0.00 0.00 83 1013.6
20260506041502 58 34 4.0 10.0 0.00 0.00 0.00 83 1013.6
20260506040100 58 253 3.0 14.0 0.00 0.00 0.00 83 1013.5
20260506034558 58 169 4.0 10.0 0.00 0.00 0.00 83 1013.3
20260506033056 58 221 6.0 15.0 0.00 0.00 0.00 83 1013.4
20260506031602 58 228 4.0 11.0 0.00 0.00 0.00 82 1013.3
20260506030112 58 250 2.0 9.0 0.00 0.00 0.00 81 1013.3
20260506024555 59 260 4.0 12.0 0.00 0.00 0.00 80 1013.3
20260506023053 59 293 3.0 11.0 0.00 0.00 0.00 80 1013.1
20260506021553 59 218 4.0 9.0 0.00 0.00 0.00 80 1013.0
20260506020053 59 242 3.0 8.0 0.00 0.00 0.00 79 1013.0
20260506014559 59 259 3.0 11.0 0.00 0.00 0.00 79 1012.8
20260506013052 59 243 3.0 11.0 0.00 0.00 0.00 79 1012.7
20260506011557 59 300 4.0 10.0 0.00 0.00 0.00 79 1012.6
20260506010055 59 304 1.0 9.0 0.00 0.00 0.00 79 1012.5
20260506004623 59 291 3.0 10.0 0.00 0.00 0.00 78 1012.3